Regional Weather Roundup
Issued by NWS Burlington, VT

Current Version | Previous Version | Text Only | Print | Product List | Glossary On
Versions: 1 2 3 4 5 6 7 8 9 10 11 12 13 14 15 16 17 18 19 20 21 22 23 24 25 26 27 28 29 30 31 32 33 34 35 36 37 38 39 40 41 42 43 44 45 46 47 48 49 50
000
ASUS41 KBTV 231930
RWRBTV
VERMONT REGIONAL WEATHER ROUNDUP
NATIONAL WEATHER SERVICE BURLINGTON VT
300 PM EDT MON OCT 23 2017

NOTE: "FAIR" INDICATES FEW OR NO CLOUDS BELOW 12,000 FEET WITH NO
SIGNIFICANT WEATHER AND/OR OBSTRUCTIONS TO VISIBILITY.

* THESE REPORTS ARE NOT UNDER NWS QUALITY CONTROL AND/OR DO NOT
  REPORT WEATHER SUCH AS PRECIPITATION AND FOG.

VTZ001>019-232000-
_____VERMONT_____


CITY           SKY/WX    TMP DP  RH WIND       PRES   REMARKS
BURLINGTON     PTSUNNY   72  55  55 S15G29    30.11F
MORRISVILLE    MOSUNNY   65  49  56 S12       30.15F
ST. JOHNSBURY*   N/A     65  53  65 MISG      30.17F
LYNDONVILLE*   FAIR      64  51  63 SE10G17   30.21F
MIDDLEBURY*    CLOUDY    69  56  62 S10G16    30.14F
RUTLAND*       MOSUNNY   70  54  56 S12       30.16F
SPRINGFIELD    CLOUDY    60  56  86 SE7       30.23F
HIGHGATE*      FAIR      72  54  53 S14G26    30.09F
NEWPORT*       FAIR      67  51  57 S7        30.15F
BENNINGTON     CLOUDY    68  56  65 S10       30.19F
SUTTON*          N/A     63 N/A N/A MISG        N/A
ISLAND POND*     N/A     68 N/A N/A SW7         N/A
GALLUP MILLS*    N/A     66 N/A N/A MISG        N/A
UNION VILLAGE*   N/A     66 N/A N/A MISG        N/A

_____LAKE CHAMPLAIN_____


CITY           SKY/WX    TMP DP  RH WIND       PRES   REMARKS
BURTON ISLAND*   N/A     68  55  64 S18         N/A
COLCHESTER RF*   N/A     66  57  72 S25         N/A
DIAMOND ISL*     N/A     70  55  60 SE24G32     N/A

$$

NYZ007-026>031-035-052-083-087-232000-
_____NORTHERN NEW YORK_____


CITY           SKY/WX    TMP DP  RH WIND       PRES   REMARKS
PLATTSBURGH    CLOUDY    70  55  59 SE16G26   30.08F
SARANAC LAKE   CLOUDY    67  50  54 S17       30.10F
MASSENA        MOSUNNY   74  52  46 S12       30.04F
OGDENSBURG*    FAIR      70  54  55 S12G20    30.02F
POTSDAM*       SUNNY     72  54  53 S10G17    30.04F
STARK FALLS*     N/A     66 N/A N/A S18         N/A
WATERTOWN      CLOUDY    70  54  56 S9G20     30.01F
FT DRUM        CLOUDY    71  53  52 S15G22    30.02F
ALBANY         CLOUDY    69  57  65 S12G21    30.16F
GLENS FALLS    CLOUDY    69  57  65 S13G20    30.15F

$$
NHZ002-005-011-232000-
_____NEW HAMPSHIRE_____


CITY           SKY/WX    TMP DP  RH WIND       PRES   REMARKS
LEBANON        CLOUDY    65  55  70 S13       30.20F
KEENE          CLOUDY    67  57  70 W6        30.23F
MT WASHINGTON  MOSUNNY   50  21  32 SW28G38     N/A
PLYMOUTH       CLOUDY    63  51  65 E5        30.24S
WHITEFIELD     CLOUDY    70  48  45 SW10G17   30.19F

$$

_____REGIONAL QUEBEC LOCATIONS_____


CITY           SKY/WX    TMP DP  RH WIND       PRES   REMARKS
MONTREAL       PTSUNNY   72  50  46 SE12      30.05F
QUEBEC CITY    PTSUNNY   68  46  45 VRB2      30.10F
SHERBROOKE     MOSUNNY   73  45  35 SW12G20   30.12F

_____REGIONAL ONTARIO LOCATIONS_____


CITY           SKY/WX    TMP DP  RH WIND       PRES   REMARKS
OTTAWA         PTSUNNY   70  54  56 S10       30.01F

______KEY______
VSB  - VISIBILITY IN MILES
WCI  - WIND CHILL INDEX
HX   - HEAT INDEX
$$
NNNN



USA.gov is the U.S. government's official web portal to all federal, state and local government web resources and services.